,,PA_Meas_PMT16A,,PR_Meas_QMR101_102,,RH_Meas_QMH101,,SR_Meas_QMS101,,TA_Meas_QMH101,,GenWind,,GenWind,
time,status,PA,status,PR,status,RH,status,SR,status,TA,status,DirAvg,status,SpdAvg,
2013-11-13, 00:00:04,VALID,916.137,VALID,0,VALID,97.2443,VALID,0,VALID,19.7823,VALID,351,VALID,0,
2013-11-13, 00:01:04,VALID,916.104,VALID,0,VALID,97.2595,VALID,0,VALID,19.7823,VALID,351,VALID,0,
2013-11-13, 00:02:04,VALID,916.071,VALID,0,VALID,97.2595,VALID,0,VALID,19.7643,VALID,351,VALID,0,
2013-11-13, 00:03:04,VALID,916.079,VALID,0,VALID,97.2595,VALID,0,VALID,19.7253,VALID,351,VALID,0,
2013-11-13, 00:04:04,VALID,916.071,VALID,0,VALID,97.29,VALID,0,VALID,19.6848,VALID,351,VALID,0,
2013-11-13, 00:05:04,VALID,916.055,VALID,0,VALID,97.2748,VALID,0,VALID,19.6653,VALID,351,VALID,0,
2013-11-13, 00:06:04,VALID,916.046,VALID,0,VALID,97.2824,VALID,0,VALID,19.6458,VALID,351,VALID,0,
2013-11-13, 00:07:04,VALID,916.046,VALID,0,VALID,97.2748,VALID,0,VALID,19.6263,VALID,351,VALID,0,
2013-11-13, 00:08:04,VALID,916.016,VALID,0,VALID,97.29,VALID,0,VALID,19.5843,VALID,351,VALID,0,
2013-11-13, 00:09:04,VALID,916.015,VALID,0,VALID,97.2977,VALID,0,VALID,19.6053,VALID,351,VALID,0,
2013-11-13, 00:10:04,VALID,915.986,VALID,0,VALID,97.3053,VALID,0,VALID,19.5858,VALID,351,VALID,0,
2013-11-13, 00:11:04,VALID,915.972,VALID,0,VALID,97.29,VALID,0,VALID,19.5663,VALID,351,VALID,0,
2013-11-13, 00:12:04,VALID,915.924,VALID,0,VALID,97.2977,VALID,0,VALID,19.5663,VALID,351,VALID,0,
2013-11-13, 00:13:04,VALID,915.938,VALID,0,VALID,97.29,VALID,0,VALID,19.5078,VALID,23,VALID,0,
2013-11-13, 00:14:04,VALID,915.923,VALID,0,VALID,97.3205,VALID,0,VALID,19.4493,VALID,34,VALID,0,
2013-11-13, 00:15:04,VALID,915.914,VALID,0,VALID,97.3205,VALID,0.107441,VALID,19.4493,VALID,66,VALID,0,
2013-11-13, 00:16:04,VALID,915.898,VALID,0,VALID,97.3205,VALID,0,VALID,19.4298,VALID,67,VALID,0,
2013-11-13, 00:17:04,VALID,915.882,VALID,0,VALID,97.3205,VALID,0,VALID,19.4103,VALID,67,VALID,0,
2013-11-13, 00:18:04,VALID,915.865,VALID,0,VALID,97.3281,VALID,0,VALID,19.3908,VALID,66,VALID,0,
2013-11-13, 00:19:04,VALID,915.861,VALID,0,VALID,97.3281,VALID,0,VALID,19.3908,VALID,66,VALID,0,
2013-11-13, 00:20:04,VALID,915.839,VALID,0,VALID,97.3205,VALID,0,VALID,19.3713,VALID,66,VALID,0,
2013-11-13, 00:21:04,VALID,915.849,VALID,0,VALID,97.3205,VALID,0,VALID,19.3518,VALID,67,VALID,0,
2013-11-13, 00:22:04,VALID,915.815,VALID,0,VALID,97.3281,VALID,0,VALID,19.3518,VALID,66,VALID,0,
2013-11-13, 00:23:04,VALID,915.801,VALID,0,VALID,97.3358,VALID,0,VALID,19.3533,VALID,66,VALID,0,
2013-11-13, 00:24:04,VALID,915.801,VALID,0,VALID,97.3434,VALID,0,VALID,19.3533,VALID,66,VALID,0,
2013-11-13, 00:25:04,VALID,915.789,VALID,0,VALID,97.3358,VALID,0,VALID,19.3533,VALID,67,VALID,0,
2013-11-13, 00:26:04,VALID,915.784,VALID,0,VALID,97.351,VALID,0,VALID,19.3338,VALID,67,VALID,0,
2013-11-13, 00:27:04,VALID,915.764,VALID,0,VALID,97.351,VALID,0,VALID,19.3338,VALID,66,VALID,0,
2013-11-13, 00:28:04,VALID,915.772,VALID,0,VALID,97.3358,VALID,0,VALID,19.3338,VALID,67,VALID,0,
2013-11-13, 00:29:04,VALID,915.713,VALID,0,VALID,97.351,VALID,0,VALID,19.3533,VALID,66,VALID,0,
2013-11-13, 00:30:04,VALID,915.718,VALID,0,VALID,97.3281,VALID,0,VALID,19.3533,VALID,67,VALID,0,
2013-11-13, 00:31:04,VALID,915.718,VALID,0,VALID,97.3434,VALID,0,VALID,19.3728,VALID,66,VALID,0,
2013-11-13, 00:32:04,VALID,915.673,VALID,0,VALID,97.3434,VALID,0,VALID,19.3728,VALID,67,VALID,0,
2013-11-13, 00:33:04,VALID,915.705,VALID,0,VALID,97.3358,VALID,0,VALID,19.3533,VALID,66,VALID,0,
2013-11-13, 00:34:04,VALID,915.662,VALID,0,VALID,97.3358,VALID,0,VALID,19.3533,VALID,66,VALID,0,
2013-11-13, 00:35:04,VALID,915.684,VALID,0,VALID,97.351,VALID,0,VALID,19.3547,VALID,66,VALID,0,
2013-11-13, 00:36:04,VALID,915.686,VALID,0,VALID,97.3586,VALID,0,VALID,19.3143,VALID,67,VALID,0,
2013-11-13, 00:37:04,VALID,915.67,VALID,0,VALID,97.3586,VALID,0,VALID,19.3143,VALID,66,VALID,0,
2013-11-13, 00:38:04,VALID,915.657,VALID,0,VALID,97.3586,VALID,0,VALID,19.2948,VALID,67,VALID,0,
2013-11-13, 00:39:04,VALID,915.7,VALID,0,VALID,97.351,VALID,0,VALID,19.2753,VALID,66,VALID,0,
2013-11-13, 00:40:04,VALID,915.667,VALID,0,VALID,97.351,VALID,0,VALID,19.2558,VALID,66,VALID,0,
2013-11-13, 00:41:04,VALID,915.657,VALID,0,VALID,97.3434,VALID,0,VALID,19.2363,VALID,67,VALID,0,
2013-11-13, 00:42:04,VALID,915.657,VALID,0,VALID,97.3739,VALID,0,VALID,19.2168,VALID,97,VALID,0,
2013-11-13, 00:43:04,VALID,915.659,VALID,0,VALID,97.3891,VALID,0,VALID,19.1973,VALID,97,VALID,0,
2013-11-13, 00:44:04,VALID,915.648,VALID,0,VALID,97.3663,VALID,0,VALID,19.1778,VALID,97,VALID,0,
2013-11-13, 00:45:04,VALID,915.645,VALID,0,VALID,97.3739,VALID,0,VALID,19.1973,VALID,112,VALID,0,
2013-11-13, 00:46:04,VALID,915.61,VALID,0,VALID,97.3663,VALID,0,VALID,19.1778,VALID,142,VALID,0,
2013-11-13, 00:47:04,VALID,915.591,VALID,0,VALID,97.351,VALID,0,VALID,19.2182,VALID,143,VALID,0,
2013-11-13, 00:48:04,VALID,915.552,VALID,0,VALID,97.3663,VALID,0,VALID,19.2558,VALID,142,VALID,0,
2013-11-13, 00:49:04,VALID,915.539,VALID,0,VALID,97.3663,VALID,0,VALID,19.2753,VALID,132,VALID,0,
2013-11-13, 00:50:04,VALID,915.498,VALID,0,VALID,97.351,VALID,0,VALID,19.2753,VALID,131,VALID,0,
2013-11-13, 00:51:04,VALID,915.477,VALID,0,VALID,97.3586,VALID,0,VALID,19.3143,VALID,132,VALID,0,
2013-11-13, 00:52:04,VALID,915.42,VALID,0,VALID,97.3739,VALID,0,VALID,19.3547,VALID,145,VALID,0,
2013-11-13, 00:53:04,VALID,915.42,VALID,0,VALID,97.3663,VALID,0,VALID,19.3533,VALID,148,VALID,0,
2013-11-13, 00:54:04,VALID,915.372,VALID,0,VALID,97.3434,VALID,0,VALID,19.3533,VALID,142,VALID,0,
2013-11-13, 00:55:04,VALID,915.332,VALID,0,VALID,97.3434,VALID,0,VALID,19.3323,VALID,150,VALID,0,
2013-11-13, 00:56:04,VALID,915.293,VALID,0,VALID,97.351,VALID,0,VALID,19.3338,VALID,134,VALID,0,
2013-11-13, 00:57:04,VALID,915.26,VALID,0,VALID,97.351,VALID,0,VALID,19.3338,VALID,130,VALID,0,
2013-11-13, 00:58:04,VALID,915.241,VALID,0,VALID,97.3434,VALID,0,VALID,19.3338,VALID,131,VALID,0,
2013-11-13, 00:59:04,VALID,915.203,VALID,0,VALID,97.3663,VALID,0.107441,VALID,19.3338,VALID,134,VALID,0,
2013-11-13, 01:00:04,VALID,915.197,VALID,0,VALID,97.3586,VALID,0,VALID,19.3323,VALID,132,VALID,0,
2013-11-13, 01:01:04,VALID,915.174,VALID,0,VALID,97.3586,VALID,0,VALID,19.3128,VALID,139,VALID,0,
2013-11-13, 01:02:04,VALID,915.147,VALID,0,VALID,97.3739,VALID,0,VALID,19.3338,VALID,134,VALID,0,
2013-11-13, 01:03:04,VALID,915.155,VALID,0,VALID,97.3663,VALID,0,VALID,19.3128,VALID,134,VALID,0,
2013-11-13, 01:04:04,VALID,915.145,VALID,0,VALID,97.3663,VALID,0,VALID,19.3533,VALID,134,VALID,0,
2013-11-13, 01:05:04,VALID,915.115,VALID,0,VALID,97.3891,VALID,0,VALID,19.3143,VALID,138,VALID,0,
2013-11-13, 01:06:04,VALID,915.134,VALID,0,VALID,97.3739,VALID,0,VALID,19.3143,VALID,138,VALID,0,
2013-11-13, 01:07:04,VALID,915.134,VALID,0,VALID,97.3739,VALID,0,VALID,19.3143,VALID,137,VALID,0,
2013-11-13, 01:08:04,VALID,915.117,VALID,0,VALID,97.3815,VALID,0,VALID,19.3143,VALID,137,VALID,0,
2013-11-13, 01:09:04,VALID,915.103,VALID,0,VALID,97.3663,VALID,0,VALID,19.3128,VALID,137,VALID,0,
2013-11-13, 01:10:04,VALID,915.164,VALID,0,VALID,97.3739,VALID,0,VALID,19.3143,VALID,137,VALID,0,
2013-11-13, 01:11:04,VALID,915.141,VALID,0,VALID,97.3739,VALID,0,VALID,19.3143,VALID,137,VALID,0,
2013-11-13, 01:12:04,VALID,915.145,VALID,0,VALID,97.3739,VALID,0,VALID,19.3128,VALID,138,VALID,0,
2013-11-13, 01:13:04,VALID,915.162,VALID,0,VALID,97.3663,VALID,0,VALID,19.3128,VALID,138,VALID,0,
2013-11-13, 01:14:04,VALID,915.153,VALID,0,VALID,97.3663,VALID,0,VALID,19.3338,VALID,138,VALID,0,
2013-11-13, 01:15:04,VALID,915.148,VALID,0,VALID,97.3815,VALID,0.107441,VALID,19.3338,VALID,138,VALID,0,
2013-11-13, 01:16:04,VALID,915.122,VALID,0,VALID,97.3586,VALID,0,VALID,19.3128,VALID,138,VALID,0,
2013-11-13, 01:17:04,VALID,915.102,VALID,0,VALID,97.3739,VALID,0.107441,VALID,19.3338,VALID,138,VALID,0,
2013-11-13, 01:18:04,VALID,915.043,VALID,0,VALID,97.3663,VALID,0,VALID,19.3338,VALID,138,VALID,0,
2013-11-13, 01:19:04,VALID,915.011,VALID,0,VALID,97.3815,VALID,0,VALID,19.3338,VALID,148,VALID,0,
2013-11-13, 01:20:04,VALID,914.995,VALID,0,VALID,97.3891,VALID,0,VALID,19.2933,VALID,148,VALID,0,
2013-11-13, 01:21:04,VALID,914.963,VALID,0,VALID,97.3891,VALID,0,VALID,19.2738,VALID,148,VALID,0,
2013-11-13, 01:22:04,VALID,914.942,VALID,0,VALID,97.3739,VALID,0,VALID,19.2738,VALID,148,VALID,0,
2013-11-13, 01:23:04,VALID,914.947,VALID,0,VALID,97.3891,VALID,0,VALID,19.2948,VALID,148,VALID,0,
2013-11-13, 01:24:04,VALID,914.952,VALID,0,VALID,97.4044,VALID,0,VALID,19.2933,VALID,148,VALID,0,
2013-11-13, 01:25:04,VALID,914.928,VALID,0,VALID,97.3891,VALID,0,VALID,19.2543,VALID,148,VALID,0,
2013-11-13, 01:26:04,VALID,914.927,VALID,0,VALID,97.3891,VALID,0.107441,VALID,19.2348,VALID,148,VALID,0,
2013-11-13, 01:27:04,VALID,914.967,VALID,0,VALID,97.3891,VALID,0,VALID,19.2153,VALID,148,VALID,0,
2013-11-13, 01:28:04,VALID,914.952,VALID,0,VALID,97.3891,VALID,0.107441,VALID,19.2153,VALID,148,VALID,0,
2013-11-13, 01:29:04,VALID,914.939,VALID,0,VALID,97.3891,VALID,0,VALID,19.2363,VALID,148,VALID,0,
2013-11-13, 01:30:04,VALID,914.93,VALID,0,VALID,97.3968,VALID,0,VALID,19.1958,VALID,148,VALID,0,
2013-11-13, 01:31:04,VALID,914.952,VALID,0,VALID,97.3968,VALID,0.107441,VALID,19.1958,VALID,148,VALID,0,
2013-11-13, 01:32:04,VALID,914.979,VALID,0,VALID,97.4044,VALID,0.107441,VALID,19.1973,VALID,148,VALID,0,
2013-11-13, 01:33:04,VALID,914.981,VALID,0,VALID,97.4044,VALID,0,VALID,19.1763,VALID,148,VALID,0,
2013-11-13, 01:34:04,VALID,914.98,VALID,0,VALID,97.3891,VALID,0,VALID,19.1778,VALID,148,VALID,0,
2013-11-13, 01:35:04,VALID,915.016,VALID,0,VALID,97.3891,VALID,0.107441,VALID,19.1958,VALID,148,VALID,0,
2013-11-13, 01:36:04,VALID,915.022,VALID,0,VALID,97.412,VALID,0,VALID,19.1763,VALID,148,VALID,0,
2013-11-13, 01:37:04,VALID,915.035,VALID,0,VALID,97.3968,VALID,0.107441,VALID,19.1973,VALID,148,VALID,0,
2013-11-13, 01:38:04,VALID,915.039,VALID,0,VALID,97.3968,VALID,0,VALID,19.1763,VALID,148,VALID,0,
2013-11-13, 01:39:04,VALID,915.044,VALID,0,VALID,97.412,VALID,0,VALID,19.1958,VALID,148,VALID,0,
2013-11-13, 01:40:04,VALID,915.056,VALID,0,VALID,97.4044,VALID,0,VALID,19.2153,VALID,148,VALID,0,
2013-11-13, 01:41:04,VALID,915.076,VALID,0,VALID,97.4196,VALID,0,VALID,19.1958,VALID,148,VALID,0,
2013-11-13, 01:42:04,VALID,915.045,VALID,0,VALID,97.3968,VALID,0,VALID,19.2153,VALID,148,VALID,0,
2013-11-13, 01:43:04,VALID,915.056,VALID,0,VALID,97.3891,VALID,0,VALID,19.2153,VALID,148,VALID,0,
2013-11-13, 01:44:04,VALID,915.043,VALID,0,VALID,97.4044,VALID,0,VALID,19.2153,VALID,148,VALID,0,
2013-11-13, 01:45:04,VALID,915.059,VALID,0,VALID,97.3968,VALID,0,VALID,19.2168,VALID,148,VALID,0,
2013-11-13, 01:46:05,VALID,915.042,VALID,0,VALID,97.4044,VALID,0.107441,VALID,19.2153,VALID,148,VALID,0,
2013-11-13, 01:47:05,VALID,915.005,VALID,0,VALID,97.4044,VALID,0,VALID,19.2348,VALID,148,VALID,0,
2013-11-13, 01:48:05,VALID,915.018,VALID,0,VALID,97.412,VALID,0,VALID,19.2558,VALID,148,VALID,0,
2013-11-13, 01:49:05,VALID,915.003,VALID,0,VALID,97.3815,VALID,0,VALID,19.2558,VALID,148,VALID,0,
2013-11-13, 01:50:05,VALID,914.942,VALID,0,VALID,97.3968,VALID,0.107441,VALID,19.2348,VALID,148,VALID,0,
2013-11-13, 01:51:05,VALID,914.917,VALID,0,VALID,97.4044,VALID,0.107441,VALID,19.2348,VALID,148,VALID,0,
2013-11-13, 01:52:05,VALID,914.938,VALID,0,VALID,97.412,VALID,0.107441,VALID,19.2348,VALID,148,VALID,0,
2013-11-13, 01:53:05,VALID,914.949,VALID,0,VALID,97.412,VALID,0.107441,VALID,19.1958,VALID,148,VALID,0,
2013-11-13, 01:54:05,VALID,914.97,VALID,0,VALID,97.4044,VALID,0,VALID,19.2348,VALID,148,VALID,0,
2013-11-13, 01:55:05,VALID,915.015,VALID,0,VALID,97.4196,VALID,0.107441,VALID,19.2348,VALID,148,VALID,0,
2013-11-13, 01:56:05,VALID,915.051,VALID,0,VALID,97.4196,VALID,0,VALID,19.2168,VALID,148,VALID,0,
2013-11-13, 01:57:05,VALID,915.084,VALID,0,VALID,97.4273,VALID,0.107441,VALID,19.1958,VALID,146,VALID,0,
2013-11-13, 01:58:05,VALID,915.057,VALID,0,VALID,97.412,VALID,0.107441,VALID,19.1958,VALID,139,VALID,0,
2013-11-13, 01:59:05,VALID,915.066,VALID,0,VALID,97.412,VALID,0,VALID,19.1763,VALID,128,VALID,0,
2013-11-13, 02:00:05,VALID,915.054,VALID,0,VALID,97.4196,VALID,0,VALID,19.1973,VALID,117,VALID,0,
2013-11-13, 02:01:05,VALID,915.042,VALID,0,VALID,97.4044,VALID,0,VALID,19.1763,VALID,117,VALID,0,
2013-11-13, 02:02:05,VALID,915.033,VALID,0,VALID,97.4273,VALID,0.107441,VALID,19.1763,VALID,117,VALID,0,
2013-11-13, 02:03:05,VALID,915,VALID,0,VALID,97.4425,VALID,0,VALID,19.1568,VALID,117,VALID,0,
2013-11-13, 02:04:05,VALID,914.98,VALID,0,VALID,97.4273,VALID,0.107441,VALID,19.1568,VALID,117,VALID,0,
2013-11-13, 02:05:05,VALID,914.985,VALID,0,VALID,97.4196,VALID,0.107441,VALID,19.1778,VALID,117,VALID,0,
2013-11-13, 02:06:05,VALID,914.947,VALID,0,VALID,97.4196,VALID,0,VALID,19.1973,VALID,117,VALID,0,
2013-11-13, 02:07:05,VALID,914.964,VALID,0,VALID,97.4349,VALID,0.107441,VALID,19.1763,VALID,117,VALID,0,
2013-11-13, 02:08:05,VALID,914.988,VALID,0,VALID,97.4273,VALID,0,VALID,19.1763,VALID,117,VALID,0,
2013-11-13, 02:09:05,VALID,914.981,VALID,0,VALID,97.4196,VALID,0,VALID,19.1763,VALID,118,VALID,0,
2013-11-13, 02:10:05,VALID,915.016,VALID,0,VALID,97.4273,VALID,0,VALID,19.1568,VALID,119,VALID,0,
2013-11-13, 02:11:05,VALID,915.02,VALID,0,VALID,97.4196,VALID,0,VALID,19.1583,VALID,119,VALID,0,
2013-11-13, 02:12:05,VALID,915.008,VALID,0,VALID,97.4273,VALID,0,VALID,19.1583,VALID,126,VALID,0,
2013-11-13, 02:13:05,VALID,914.986,VALID,0,VALID,97.4273,VALID,0.107441,VALID,19.1763,VALID,129,VALID,0,
2013-11-13, 02:14:05,VALID,914.971,VALID,0,VALID,97.4196,VALID,0.107441,VALID,19.1763,VALID,129,VALID,0,
2013-11-13, 02:15:05,VALID,914.96,VALID,0,VALID,97.4425,VALID,0.107441,VALID,19.1763,VALID,129,VALID,0,
2013-11-13, 02:16:05,VALID,914.936,VALID,0,VALID,97.4196,VALID,0,VALID,19.1958,VALID,129,VALID,0,
2013-11-13, 02:17:05,VALID,914.899,VALID,0,VALID,97.412,VALID,0,VALID,19.1958,VALID,129,VALID,0,
2013-11-13, 02:18:05,VALID,914.874,VALID,0,VALID,97.412,VALID,0,VALID,19.1958,VALID,129,VALID,0,
2013-11-13, 02:19:05,VALID,914.875,VALID,0,VALID,97.412,VALID,0.107441,VALID,19.1973,VALID,129,VALID,0,
2013-11-13, 02:20:05,VALID,914.875,VALID,0,VALID,97.4196,VALID,0,VALID,19.1958,VALID,129,VALID,0,
2013-11-13, 02:21:05,VALID,914.904,VALID,0,VALID,97.4196,VALID,0.107441,VALID,19.1973,VALID,129,VALID,0,
2013-11-13, 02:22:05,VALID,914.906,VALID,0,VALID,97.4273,VALID,0,VALID,19.1763,VALID,129,VALID,0,
2013-11-13, 02:23:05,VALID,914.88,VALID,0,VALID,97.4349,VALID,0,VALID,19.1763,VALID,129,VALID,0,
2013-11-13, 02:24:05,VALID,914.898,VALID,0,VALID,97.412,VALID,0,VALID,19.1973,VALID,129,VALID,0,
2013-11-13, 02:25:05,VALID,914.892,VALID,0,VALID,97.4349,VALID,0,VALID,19.1973,VALID,129,VALID,0,
2013-11-13, 02:26:05,VALID,914.856,VALID,0,VALID,97.4425,VALID,0,VALID,19.1973,VALID,129,VALID,0,
2013-11-13, 02:27:05,VALID,914.858,VALID,0,VALID,97.4349,VALID,0,VALID,19.1778,VALID,129,VALID,0,
2013-11-13, 02:28:05,VALID,914.903,VALID,0,VALID,97.4349,VALID,0,VALID,19.1568,VALID,128,VALID,0,
2013-11-13, 02:29:05,VALID,914.864,VALID,0,VALID,97.4501,VALID,0,VALID,19.1583,VALID,121,VALID,0,
2013-11-13, 02:30:05,VALID,914.884,VALID,0,VALID,97.4577,VALID,0,VALID,19.1583,VALID,128,VALID,0,
2013-11-13, 02:31:05,VALID,914.894,VALID,0,VALID,97.4349,VALID,0.107441,VALID,19.1388,VALID,116,VALID,0,
2013-11-13, 02:32:05,VALID,914.86,VALID,0,VALID,97.4501,VALID,0,VALID,19.1193,VALID,115,VALID,0,
2013-11-13, 02:33:05,VALID,914.827,VALID,0,VALID,97.4577,VALID,0,VALID,19.0998,VALID,115,VALID,0,
2013-11-13, 02:34:05,VALID,914.785,VALID,0,VALID,97.4501,VALID,0,VALID,19.0998,VALID,115,VALID,0,
2013-11-13, 02:35:05,VALID,914.726,VALID,0,VALID,97.4577,VALID,0,VALID,19.0998,VALID,115,VALID,0,
2013-11-13, 02:36:05,VALID,914.693,VALID,0,VALID,97.4501,VALID,0,VALID,19.1193,VALID,115,VALID,0,
2013-11-13, 02:37:05,VALID,914.672,VALID,0,VALID,97.4349,VALID,0,VALID,19.0998,VALID,115,VALID,0,
2013-11-13, 02:38:05,VALID,914.633,VALID,0,VALID,97.4349,VALID,0,VALID,19.0998,VALID,115,VALID,0,
2013-11-13, 02:39:05,VALID,914.634,VALID,0,VALID,97.4501,VALID,0,VALID,19.0983,VALID,115,VALID,0,
2013-11-13, 02:40:05,VALID,914.63,VALID,0,VALID,97.4349,VALID,0,VALID,19.0983,VALID,115,VALID,0,
2013-11-13, 02:41:05,VALID,914.632,VALID,0,VALID,97.4425,VALID,0,VALID,19.1193,VALID,115,VALID,0,
2013-11-13, 02:42:05,VALID,914.63,VALID,0,VALID,97.4654,VALID,0,VALID,19.1193,VALID,115,VALID,0,
2013-11-13, 02:43:05,VALID,914.645,VALID,0,VALID,97.4577,VALID,0.107441,VALID,19.0983,VALID,115,VALID,0,
2013-11-13, 02:44:05,VALID,914.684,VALID,0,VALID,97.4425,VALID,0,VALID,19.1193,VALID,115,VALID,0,
2013-11-13, 02:45:05,VALID,914.677,VALID,0,VALID,97.4501,VALID,0,VALID,19.1193,VALID,115,VALID,0,
2013-11-13, 02:46:05,VALID,914.716,VALID,0,VALID,97.4577,VALID,0,VALID,19.0998,VALID,115,VALID,0,
2013-11-13, 02:47:05,VALID,914.701,VALID,0,VALID,97.4501,VALID,0,VALID,19.1193,VALID,115,VALID,0,
2013-11-13, 02:48:05,VALID,914.678,VALID,0,VALID,97.4501,VALID,0,VALID,19.1193,VALID,115,VALID,0,
2013-11-13, 02:49:05,VALID,914.667,VALID,0,VALID,97.4654,VALID,0,VALID,19.0998,VALID,115,VALID,0,
2013-11-13, 02:50:05,VALID,914.661,VALID,0,VALID,97.4501,VALID,0.107441,VALID,19.0983,VALID,115,VALID,0,
2013-11-13, 02:51:05,VALID,914.646,VALID,0,VALID,97.4425,VALID,0,VALID,19.0803,VALID,115,VALID,0,
2013-11-13, 02:52:05,VALID,914.626,VALID,0,VALID,97.4806,VALID,0,VALID,19.0803,VALID,115,VALID,0,
2013-11-13, 02:53:05,VALID,914.689,VALID,0,VALID,97.473,VALID,0,VALID,19.0398,VALID,115,VALID,0,
2013-11-13, 02:54:05,VALID,914.687,VALID,0,VALID,97.4501,VALID,0.107441,VALID,19.0398,VALID,115,VALID,0,
2013-11-13, 02:55:05,VALID,914.68,VALID,0,VALID,97.4501,VALID,0.107441,VALID,19.0608,VALID,115,VALID,0,
2013-11-13, 02:56:05,VALID,914.692,VALID,0,VALID,97.4577,VALID,0,VALID,19.0203,VALID,115,VALID,0,
2013-11-13, 02:57:05,VALID,914.689,VALID,0,VALID,97.4654,VALID,0.107441,VALID,19.0218,VALID,115,VALID,0,
2013-11-13, 02:58:05,VALID,914.654,VALID,0,VALID,97.473,VALID,0,VALID,19.0023,VALID,115,VALID,0,
2013-11-13, 02:59:05,VALID,914.664,VALID,0,VALID,97.473,VALID,0,VALID,18.9814,VALID,115,VALID,0,
2013-11-13, 03:00:05,VALID,914.625,VALID,0,VALID,97.4577,VALID,0,VALID,19.0023,VALID,115,VALID,0,
2013-11-13, 03:01:05,VALID,914.631,VALID,0,VALID,97.4577,VALID,0,VALID,18.9619,VALID,115,VALID,0,
2013-11-13, 03:02:05,VALID,914.617,VALID,0,VALID,97.4577,VALID,0,VALID,18.9633,VALID,115,VALID,0,
2013-11-13, 03:03:05,VALID,914.593,VALID,0,VALID,97.4806,VALID,0.107441,VALID,18.9034,VALID,115,VALID,0,
2013-11-13, 03:04:05,VALID,914.568,VALID,0,VALID,97.4806,VALID,0.107441,VALID,18.9048,VALID,115,VALID,0,
2013-11-13, 03:05:05,VALID,914.533,VALID,0,VALID,97.4959,VALID,0,VALID,18.8658,VALID,115,VALID,0,
2013-11-13, 03:06:05,VALID,914.536,VALID,0,VALID,97.4882,VALID,0,VALID,18.8254,VALID,115,VALID,0,
2013-11-13, 03:07:05,VALID,914.524,VALID,0,VALID,97.4959,VALID,0,VALID,18.8463,VALID,115,VALID,0,
2013-11-13, 03:08:05,VALID,914.533,VALID,0,VALID,97.473,VALID,0,VALID,18.8449,VALID,115,VALID,0,
2013-11-13, 03:09:05,VALID,914.524,VALID,0,VALID,97.4959,VALID,0,VALID,18.8073,VALID,115,VALID,0,
2013-11-13, 03:10:05,VALID,914.524,VALID,0,VALID,97.5111,VALID,0,VALID,18.7488,VALID,115,VALID,0,
2013-11-13, 03:11:05,VALID,914.565,VALID,0,VALID,97.5187,VALID,0,VALID,18.7293,VALID,115,VALID,0,
2013-11-13, 03:12:05,VALID,914.562,VALID,0,VALID,97.5187,VALID,0,VALID,18.7293,VALID,115,VALID,0,
2013-11-13, 03:13:05,VALID,914.613,VALID,0,VALID,97.4959,VALID,0,VALID,18.7084,VALID,115,VALID,0,
2013-11-13, 03:14:05,VALID,914.597,VALID,0,VALID,97.5264,VALID,0,VALID,18.6694,VALID,115,VALID,0,
2013-11-13, 03:15:05,VALID,914.637,VALID,0,VALID,97.534,VALID,0.107441,VALID,18.6513,VALID,115,VALID,0,
2013-11-13, 03:16:05,VALID,914.655,VALID,0,VALID,97.5416,VALID,0.107441,VALID,18.6304,VALID,115,VALID,0,
2013-11-13, 03:17:05,VALID,914.691,VALID,0,VALID,97.5416,VALID,0,VALID,18.6708,VALID,115,VALID,0,
2013-11-13, 03:18:05,VALID,914.696,VALID,0,VALID,97.5264,VALID,0,VALID,18.6319,VALID,115,VALID,0,
2013-11-13, 03:19:05,VALID,914.722,VALID,0,VALID,97.5416,VALID,0,VALID,18.6319,VALID,115,VALID,0,
2013-11-13, 03:20:05,VALID,914.702,VALID,0,VALID,97.534,VALID,0,VALID,18.6109,VALID,115,VALID,0,
2013-11-13, 03:21:05,VALID,914.704,VALID,0,VALID,97.5264,VALID,0,VALID,18.6124,VALID,115,VALID,0,
2013-11-13, 03:22:05,VALID,914.729,VALID,0,VALID,97.5264,VALID,0.107441,VALID,18.6319,VALID,115,VALID,0,
2013-11-13, 03:23:05,VALID,914.697,VALID,0,VALID,97.5187,VALID,0.107441,VALID,18.6109,VALID,115,VALID,0,
2013-11-13, 03:24:05,VALID,914.732,VALID,0,VALID,97.5187,VALID,0,VALID,18.6513,VALID,115,VALID,0,
2013-11-13, 03:25:05,VALID,914.728,VALID,0,VALID,97.5111,VALID,0,VALID,18.6513,VALID,115,VALID,0,
2013-11-13, 03:26:05,VALID,914.734,VALID,0,VALID,97.5416,VALID,0,VALID,18.6694,VALID,115,VALID,0,
2013-11-13, 03:27:05,VALID,914.71,VALID,0,VALID,97.5111,VALID,0,VALID,18.7293,VALID,115,VALID,0,
2013-11-13, 03:28:05,VALID,914.735,VALID,0,VALID,97.5111,VALID,0,VALID,18.7683,VALID,115,VALID,0,
2013-11-13, 03:29:05,VALID,914.704,VALID,0,VALID,97.4959,VALID,0,VALID,18.7878,VALID,115,VALID,0,
2013-11-13, 03:30:05,VALID,914.698,VALID,0,VALID,97.5035,VALID,0,VALID,18.8073,VALID,115,VALID,0,
2013-11-13, 03:31:05,VALID,914.686,VALID,0,VALID,97.5035,VALID,0,VALID,18.8059,VALID,115,VALID,0,
2013-11-13, 03:32:05,VALID,914.693,VALID,0,VALID,97.4959,VALID,0,VALID,18.8073,VALID,115,VALID,0,
2013-11-13, 03:33:05,VALID,914.665,VALID,0,VALID,97.5264,VALID,0,VALID,18.7878,VALID,115,VALID,0,
2013-11-13, 03:34:05,VALID,914.692,VALID,0,VALID,97.5035,VALID,0,VALID,18.7669,VALID,115,VALID,0,
2013-11-13, 03:35:05,VALID,914.676,VALID,0,VALID,97.5035,VALID,0,VALID,18.7878,VALID,115,VALID,0,
2013-11-13, 03:36:05,VALID,914.712,VALID,0,VALID,97.5187,VALID,0,VALID,18.7864,VALID,115,VALID,0,
2013-11-13, 03:37:05,VALID,914.736,VALID,0,VALID,97.5264,VALID,0,VALID,18.8073,VALID,115,VALID,0,
2013-11-13, 03:38:05,VALID,914.732,VALID,0,VALID,97.5187,VALID,0,VALID,18.8073,VALID,115,VALID,0,
2013-11-13, 03:39:05,VALID,914.769,VALID,0,VALID,97.5035,VALID,0,VALID,18.8268,VALID,118,VALID,0,
2013-11-13, 03:40:05,VALID,914.777,VALID,0,VALID,97.5111,VALID,0,VALID,18.8059,VALID,123,VALID,0,
2013-11-13, 03:41:05,VALID,914.765,VALID,0,VALID,97.5187,VALID,0,VALID,18.8268,VALID,123,VALID,0,
2013-11-13, 03:42:05,VALID,914.782,VALID,0,VALID,97.5187,VALID,0.107441,VALID,18.8268,VALID,123,VALID,0,
2013-11-13, 03:43:05,VALID,914.805,VALID,0,VALID,97.4882,VALID,0,VALID,18.8463,VALID,132,VALID,0,
2013-11-13, 03:44:05,VALID,914.814,VALID,0,VALID,97.5035,VALID,0,VALID,18.8463,VALID,132,VALID,0,
2013-11-13, 03:45:05,VALID,914.815,VALID,0,VALID,97.4806,VALID,0,VALID,18.8463,VALID,132,VALID,0,
2013-11-13, 03:46:05,VALID,914.781,VALID,0,VALID,97.5035,VALID,0.107441,VALID,18.8463,VALID,132,VALID,0,
2013-11-13, 03:47:05,VALID,914.818,VALID,0,VALID,97.5035,VALID,0,VALID,18.8268,VALID,132,VALID,0,
2013-11-13, 03:48:05,VALID,914.837,VALID,0,VALID,97.5111,VALID,0,VALID,18.8268,VALID,115,VALID,0,
2013-11-13, 03:49:05,VALID,914.822,VALID,0,VALID,97.5035,VALID,0,VALID,18.8073,VALID,115,VALID,0,
2013-11-13, 03:50:05,VALID,914.825,VALID,0,VALID,97.4882,VALID,0,VALID,18.8073,VALID,115,VALID,0,
2013-11-13, 03:51:05,VALID,914.839,VALID,0,VALID,97.5187,VALID,0,VALID,18.7878,VALID,115,VALID,0,
2013-11-13, 03:52:05,VALID,914.806,VALID,0,VALID,97.5111,VALID,0,VALID,18.7878,VALID,115,VALID,0,
2013-11-13, 03:53:05,VALID,914.819,VALID,0,VALID,97.5264,VALID,0,VALID,18.7683,VALID,115,VALID,0,
2013-11-13, 03:54:05,VALID,914.851,VALID,0,VALID,97.5187,VALID,0,VALID,18.7683,VALID,115,VALID,0,
2013-11-13, 03:55:05,VALID,914.806,VALID,0,VALID,97.5187,VALID,0,VALID,18.7683,VALID,115,VALID,0,
2013-11-13, 03:56:05,VALID,914.82,VALID,0,VALID,97.5187,VALID,0,VALID,18.7892,VALID,115,VALID,0,
2013-11-13, 03:57:05,VALID,914.841,VALID,0,VALID,97.5187,VALID,0,VALID,18.7683,VALID,115,VALID,0,